CZ-4B R/B

Last updated on Mon Jun 22 2026 00:02:14 GMT+0000 (Coordinated Universal Time)

1 28415U 04035C 26171.33593882 .00006049 00000+0 20403-3 0 9990 2 28415 97.3363 204.3739 0029557 326.3622 33.5742 15.30663439195608
UTC large
Height (km)
Speed (km/s)
/
Latitude / Longitude
Inclination (degrees)
Orbital Period (minutes)
Azimuth
Elevation
Range (km)
Doppler Factor

Next 0 passes for location: London (51.5072 / 0.1276)

No passes found over London.
CZ-4B R/B